Cloud_Cover
100 100 60 5 5 5 3 46 100 100 94 100 100 100 100 100 100 12 100 100 100 100 100 100 100 100 99 100 100 99 5 6 100 100 100 67 4 0 0 4 5 5 4 5 5
100 100 33 57 69 14 6 98 100 100 100 92 100 100 100 100 100 100 28 100 100 100 100 100 100 100 100 100 100 84 7 88 100 100 100 15 0 0 0 3 5 5 0 0 0
8 11 6 77 3 100 80 74 100 100 96 100 100 100 100 100 100 100 89 26 100 100 100 100 100 100 100 97 95 99 82 100 100 100 100 5 1 0 0 0 6 5 0 0 0
12 7 5 5 5 4 4 14 100 27 100 66 98 100 100 100 100 100 100 100 9 100 100 100 100 100 100 100 100 100 100 100 100 100 100 90 5 5 0 2 5 15 0 0 0
8 47 79 33 61 7 5 3 10 13 37 100 100 100 100 100 100 100 100 100 98 27 100 100 100 100 100 100 100 100 100 100 100 100 61 92 90 7 25 18 5 5 1 0 1
69 5 27 87 100 54 5 3 3 10 0 13 100 100 100 100 100 100 100 100 100 100 73 100 100 100 100 100 100 100 100 100 100 100 98 100 100 100 83 42 5 5 5 0 5
18 17 99 100 85 97 73 5 9 5 0 0 100 100 100 66 100 100 100 100 100 100 100 98 100 100 100 100 100 100 100 100 100 100 100 100 100 100 90 5 18 18 76 5 4
78 85 100 82 5 73 99 35 0 3 0 0 57 100 100 54 100 100 100 100 100 100 100 100 97 100 100 100 100 100 100 100 100 100 100 72 100 100 100 76 95 37 11 5 42
78 94 100 99 90 85 79 56 0 0 0 3 43 100 100 67 100 100 100 100 100 100 100 100 100 100 100 100 100 100 100 100 100 100 100 89 100 100 100 100 100 100 34 5 9
16 90 96 52 6 5 11 63 93 5 0 0 11 100 100 46 95 100 100 100 100 100 100 100 100 100 100 100 100 100 100 100 100 100 100 100 100 100 100 100 100 100 100 78 21
53 5 3 0 0 5 11 23 45 16 80 4 50 66 80 87 51 100 100 100 100 100 100 100 100 100 85 100 100 100 100 100 100 100 100 100 100 100 100 100 100 100 100 100 100
3 0 2 5 28 5 50 12 73 96 83 10 100 100 100 99 100 100 100 100 100 100 100 100 100 100 100 100 100 100 100 100 100 100 100 100 100 100 100 100 100 100 100 100 100
4 8 5 5 5 6 33 100 100 89 92 22 77 100 100 100 100 100 100 100 100 100 100 100 100 100 100 100 100 100 100 100 100 100 100 100 100 100 100 100 100 100 100 100 100
92 7 5 5 89 21 93 99 100 100 100 42 100 100 100 79 100 100 92 100 100 100 100 100 100 100 100 100 100 100 100 100 100 100 100 100 100 100 100 100 100 100 100 100 100
5 21 96 37 99 100 100 83 100 100 93 100 83 100 100 99 23 95 100 100 100 100 100 100 100 100 100 100 53 87 100 100 100 100 100 100 100 100 100 100 100 100 100 100 100
11 100 100 100 100 100 84 94 100 77 95 100 100 100 100 100 96 100 100 100 100 100 100 100 100 100 90 100 100 100 88 98 100 100 100 100 100 100 100 100 100 100 100 100 100
97 100 100 97 93 100 30 94 91 99 100 100 100 100 100 98 57 100 100 100 100 100 100 100 100 100 100 90 100 100 98 86 19 64 13 79 100 100 100 100 100 100 100 100 84
93 99 90 100 97 71 52 90 100 100 100 100 100 100 100 84 100 100 100 100 100 100 100 100 100 100 100 100 100 100 100 100 82 62 11 12 30 93 100 100 100 100 94 82 81
66 32 68 70 100 50 97 100 100 100 100 100 100 100 100 100 100 100 100 100 100 100 100 100 100 100 100 100 100 100 100 100 100 62 37 87 100 72 5 6 87 100 100 100 100
51 71 100 100 87 100 100 100 100 100 100 100 100 73 100 100 100 100 100 96 100 100 100 100 100 100 100 96 100 100 100 100 100 100 95 22 94 24 12 5 5 5 10 28 46
6 41 85 54 100 100 100 100 99 100 100 100 17 91 100 100 100 100 100 100 100 100 100 100 100 100 100 100 100 100 81 77 70 89 100 99 16 12 49 5 5 5 5 5 54
5 63 73 100 100 100 100 100 100 100 100 90 11 95 100 100 100 100 100 100 100 100 100 100 100 100 100 100 100 100 24 9 5 62 49 66 100 100 45 68 98 99 98 66 10
99 85 95 100 100 100 100 100 100 100 62 70 48 56 55 45 97 70 80 100 100 100 100 100 100 100 100 100 100 38 9 81 46 99 36 91 99 97 92 98 88 96 30 5 5
11 46 98 83 96 100 100 100 100 71 100 91 94 100 100 64 95 100 99 100 100 100 100 100 100 100 100 100 100 68 87 100 100 84 90 44 99 82 56 80 100 100 100 100 100
86 98 100 98 96 100 100 100 100 92 100 100 98 76 100 100 100 100 100 100 100 100 100 100 100 100 100 100 98 99 98 100 50 93 90 5 47 5 69 100 100 100 83 100 88
94 100 100 100 100 100 100 100 100 80 100 100 100 100 100 100 100 100 100 100 100 100 100 100 100 100 100 100 54 59 100 11 5 99 70 54 15 100 100 100 100 100 100 100 100
100 100 93 28 85 100 72 53 48 100 100 100 100 100 100 100 100 100 100 100 100 100 81 85 73 92 100 100 96 14 52 98 27 31 92 99 92 100 96 100 100 100 100 100 100